Orbital Elements at Epoch 2459000.5 (2020-May-31.0) TDB
Reference: JPL 16 (heliocentric ecliptic J2000)
Element | Value | Uncertainty (1-sigma) | Units |
e | .2077430092761232 | 3.2342e-08 | |
a | 2.343180551785344 | 1.1452e-08 | au |
q | 1.85640117268017 | 7.5771e-08 | au |
i | 3.089926426945783 | 4.1867e-06 | deg |
node | 274.6169960297509 | 8.5083e-05 | deg |
peri | 148.1487118832262 | 8.5904e-05 | deg |
M | 129.4521741448172 | 1.337e-05 | deg |
tp | 2458529.399130275488 (2019-Feb-14.89913028) | 4.6817e-05 | TDB |
period | 1310.107877455177 3.59 | 9.6043e-06 2.63e-08 | d yr |
n | .2747865318536081 | 2.0144e-09 | deg/d |
Q | 2.829959930890519 | 1.3831e-08 | au |
|
| | Orbit Determination Parameters
Additional Information
|